Ban Ang Kep Nam, Thailand

12:13 PM ICT on February 24, 2017 (GMT +0700)
Krabi

Weather History for VTSG - November, 2013

Change the Weather History Date:

Friday, November 29, 2013

  Actual Average (VTSP) Record (VTSP)
Temperature  
Mean Temperature 80 °F -  
Max Temperature 86 °F 89 °F 95 °F (1996)
Min Temperature 73 °F 75 °F 72 °F (2013)
Cooling Degree Days 14    
Growing Degree Days 30 (Base 50)    
Moisture  
Dew Point 74 °F    
Average Humidity 91    
Maximum Humidity 100    
Minimum Humidity 74    
Precipitation  
Precipitation 0.00 in - - ()
Sea Level Pressure  
Sea Level Pressure 29.85 in    
Wind  
Wind Speed 4 mph ()    
Max Wind Speed 12 mph    
Max Gust Speed -    
Visibility 4.2 miles    
Events Rain    
Averages and records for this station are not official NWS values.
T = Trace of Precipitation, MM = Missing Value Source: Averaged Metar Reports

Daily Weather History Graph

Daily Weather History Graph

Search for Another Location

Airport or City:

Trip Planner

Search our weather history database for the weather conditions in past years. The results will help you decide how hot, cold, wet, or windy it might be!

Date:

Astronomy

Nov. 29, 2013 Rise Set
Actual Time 6:21 AM ICT 6:03 PM ICT
Civil Twilight 5:59 AM ICT 6:25 PM ICT
Nautical Twilight 5:33 AM ICT 6:51 PM ICT
Astronomical Twilight 5:07 AM ICT 7:17 PM ICT
Moon 2:37 AM ICT (11/29) 2:51 PM ICT (11/29)
Length of Visible Light 12h 26m
Length of Day
11h 41m
Waning Crescent, 18% of the Moon is Illuminated
Nov 29
Waning Crescent
Dec 3
New
Dec 9
First Quarter
Dec 17
Full
Dec 25
Last Quarter

Hourly Weather History & Observations

Time (ICT) Temp. Heat Index Dew Point Humidity Pressure Visibility Wind Dir Wind Speed Gust Speed Precip Events Conditions
1:00 AM 75.2 °F - 73.4 °F 94% 29.89 in 3.7 mi NE 4.6 mph - N/A   Scattered Clouds
2:00 AM 75.2 °F - 73.4 °F 94% 29.86 in 3.1 mi Variable 2.3 mph - N/A Rain Light Rain
3:00 AM 73.4 °F - 73.4 °F 100% 29.83 in 3.7 mi Variable 2.3 mph - N/A   Unknown
5:38 AM 73.4 °F - 73.4 °F 100% 29.83 in 5.0 mi NE 3.5 mph - N/A   Mist
6:00 AM 75.2 °F - 73.4 °F 94% 29.83 in 4.3 mi NNE 3.5 mph - N/A   Scattered Clouds
7:00 AM 75.2 °F - 73.4 °F 94% 29.86 in 3.1 mi NNE 3.5 mph - N/A   Mostly Cloudy
8:00 AM 77.0 °F - 75.2 °F 94% 29.89 in 4.3 mi NE 5.8 mph - N/A   Mostly Cloudy
9:00 AM 80.6 °F 86.2 °F 75.2 °F 84% 29.89 in 5.6 mi ENE 5.8 mph - N/A   Mostly Cloudy
10:00 AM 86.0 °F 96.9 °F 77.0 °F 74% 29.89 in 5.6 mi ENE 8.1 mph - N/A   Mostly Cloudy
11:00 AM 84.2 °F 92.3 °F 75.2 °F 74% 29.89 in 5.6 mi ENE 6.9 mph - N/A   Mostly Cloudy
12:00 PM 80.6 °F 86.2 °F 75.2 °F 84% 29.86 in 4.3 mi ENE 11.5 mph - N/A Rain Light Rain
1:00 PM 78.8 °F - 75.2 °F 89% 29.86 in 5.0 mi ESE 4.6 mph - N/A Rain Light Rain
2:00 PM 78.8 °F - 75.2 °F 89% 29.80 in 4.3 mi East 3.5 mph - N/A Rain Light Rain
4:00 PM 78.8 °F - 75.2 °F 89% 29.80 in 4.3 mi East 4.6 mph - N/A Rain Light Rain
5:00 PM 77.0 °F - 75.2 °F 94% 29.80 in 4.3 mi ENE 3.5 mph - N/A Rain Light Rain
6:00 PM 77.0 °F - 75.2 °F 94% 29.83 in 4.3 mi Variable 2.3 mph - N/A   Mostly Cloudy
7:00 PM 75.2 °F - 73.4 °F 94% 29.83 in 4.3 mi North 3.5 mph - N/A   Mostly Cloudy
8:00 PM 75.2 °F - 73.4 °F 94% 29.86 in 3.1 mi NE 3.5 mph - N/A   Mostly Cloudy
9:00 PM 75.2 °F - 73.4 °F 94% 29.86 in 3.1 mi NE 4.6 mph - N/A   Scattered Clouds
10:00 PM 75.2 °F - 73.4 °F 94% 29.89 in 3.1 mi NNE 3.5 mph - N/A Rain Light Rain